TimeMDT,TemperatureF,Dew PointF,Humidity,Sea Level PressureIn,VisibilityMPH,Wind Direction,Wind SpeedMPH,Gust SpeedMPH,PrecipitationIn,Events,Conditions,WindDirDegrees,DateUTC
12:53 AM,64.0,37.9,38,29.70,10.0,Calm,Calm,-,N/A,,Clear,0,2013-05-16 06:53:00
1:53 AM,63.0,37.9,40,29.70,10.0,Calm,Calm,-,N/A,,Clear,0,2013-05-16 07:53:00
2:53 AM,62.1,39.0,43,29.70,10.0,SE,4.6,-,N/A,,Clear,130,2013-05-16 08:53:00
3:53 AM,60.1,39.0,46,29.70,10.0,South,4.6,-,N/A,,Clear,170,2013-05-16 09:53:00
4:53 AM,57.0,39.0,51,29.71,10.0,SW,3.5,-,N/A,,Clear,220,2013-05-16 10:53:00
5:53 AM,55.9,39.0,53,29.72,10.0,SSE,3.5,-,N/A,,Clear,150,2013-05-16 11:53:00
6:53 AM,57.9,39.0,49,29.74,10.0,Calm,Calm,-,N/A,,Clear,0,2013-05-16 12:53:00
7:53 AM,64.0,41.0,43,29.75,10.0,ESE,5.8,-,N/A,,Clear,120,2013-05-16 13:53:00
8:53 AM,68.0,37.9,33,29.76,10.0,ESE,8.1,-,N/A,,Clear,110,2013-05-16 14:53:00
9:53 AM,73.0,34.0,24,29.75,10.0,ESE,4.6,-,N/A,,Clear,110,2013-05-16 15:53:00
10:53 AM,75.9,30.0,19,29.73,10.0,ESE,4.6,-,N/A,,Clear,120,2013-05-16 16:53:00
11:53 AM,81.0,27.0,14,29.71,10.0,SE,11.5,18.4,N/A,,Clear,140,2013-05-16 17:53:00
12:53 PM,84.9,24.1,11,29.68,10.0,West,15.0,19.6,N/A,,Clear,260,2013-05-16 18:53:00
1:53 PM,84.9,23.0,10,29.65,10.0,SW,13.8,23.0,N/A,,Clear,220,2013-05-16 19:53:00
2:39 PM,84.2,23.0,11,29.82,10.0,SW,16.1,40.3,N/A,,Squalls,230,2013-05-16 20:39:00
2:53 PM,86.0,21.9,10,29.62,10.0,WSW,9.2,24.2,N/A,,Clear,250,2013-05-16 20:53:00
3:53 PM,88.0,21.9,9,29.61,10.0,SW,23.0,33.4,N/A,,Clear,220,2013-05-16 21:53:00
4:53 PM,86.0,19.0,8,29.60,10.0,South,20.7,28.8,N/A,,Clear,190,2013-05-16 22:53:00
5:53 PM,84.0,17.1,8,29.60,10.0,SSW,18.4,31.1,N/A,,Clear,210,2013-05-16 23:53:00
6:53 PM,82.0,19.0,10,29.60,10.0,SW,17.3,-,N/A,,Clear,220,2013-05-17 00:53:00
7:53 PM,80.1,18.0,10,29.59,10.0,SSW,10.4,-,N/A,,Clear,210,2013-05-17 01:53:00
8:53 PM,75.9,19.9,12,29.59,10.0,SW,10.4,-,N/A,,Clear,220,2013-05-17 02:53:00
9:53 PM,73.0,21.0,14,29.59,10.0,SW,9.2,-,N/A,,Clear,220,2013-05-17 03:53:00
10:53 PM,71.1,19.9,14,29.59,10.0,SW,10.4,-,N/A,,Clear,230,2013-05-17 04:53:00
11:53 PM,69.1,19.9,15,29.58,10.0,SSW,3.5,-,N/A,,Clear,200,2013-05-17 05:53:00